�������C�����ː����j�^�v���󋵏��
Date,Time,Cs137(Bq/L),Cs134(Bq/L),�S��(Bq/L)
2017/08/17,00:00,0.62,0.056,ND
2017/08/17,00:10,0.63,0.058,ND
2017/08/17,00:20,0.63,0.057,ND
2017/08/17,00:30,0.64,ND,ND
2017/08/17,00:40,0.62,0.054,ND
2017/08/17,00:50,0.58,0.027,ND
2017/08/17,01:00,0.62,0.060,ND
2017/08/17,01:10,0.62,0.054,ND
2017/08/17,01:20,0.62,0.056,ND
2017/08/17,01:30,0.62,0.054,ND
2017/08/17,01:40,0.60,ND,ND
2017/08/17,01:50,0.63,0.038,ND
2017/08/17,02:00,0.65,0.032,ND
2017/08/17,02:10,0.64,ND,ND
2017/08/17,02:20,0.67,ND,ND
2017/08/17,02:30,0.70,ND,ND
2017/08/17,02:40,0.69,0.026,ND
2017/08/17,02:50,0.73,0.030,ND
2017/08/17,03:00,0.78,0.026,ND
2017/08/17,03:10,0.84,ND,ND
2017/08/17,03:20,0.85,ND,ND
2017/08/17,03:30,0.85,ND,ND
2017/08/17,03:40,0.87,ND,ND
2017/08/17,03:50,0.87,ND,ND
2017/08/17,04:00,0.85,ND,ND
2017/08/17,04:10,0.82,0.027,ND
2017/08/17,04:20,0.82,0.032,ND
2017/08/17,04:30,0.81,0.038,ND
2017/08/17,04:40,0.83,0.028,ND
2017/08/17,04:50,0.81,0.030,ND
2017/08/17,05:00,0.81,0.029,ND
2017/08/17,05:10,0.84,ND,ND
2017/08/17,05:20,0.80,0.038,ND
2017/08/17,05:30,0.83,0.033,ND
2017/08/17,05:40,0.81,0.037,ND
2017/08/17,05:50,0.81,ND,ND
2017/08/17,06:00,0.82,ND,ND
2017/08/17,06:10,0.81,ND,ND
2017/08/17,06:20,0.79,ND,ND
2017/08/17,06:30,0.79,0.037,ND
2017/08/17,06:40,0.78,ND,ND
2017/08/17,06:50,0.79,0.042,ND
2017/08/17,07:00,0.76,ND,ND
2017/08/17,07:10,0.76,ND,ND
2017/08/17,07:20,0.78,ND,ND
2017/08/17,07:30,0.79,ND,ND
2017/08/17,07:40,0.77,0.025,ND
2017/08/17,07:50,0.80,ND,ND
2017/08/17,08:00,0.80,ND,ND
2017/08/17,08:10,0.76,0.028,ND
2017/08/17,08:20,0.80,ND,ND
2017/08/17,08:30,0.74,0.026,ND
2017/08/17,08:40,0.74,0.031,ND
2017/08/17,08:50,0.74,0.028,ND
2017/08/17,09:00,0.73,0.032,ND
2017/08/17,09:10,0.79,ND,ND
2017/08/17,09:20,0.78,ND,ND
2017/08/17,09:30,0.78,ND,ND
2017/08/17,09:40,0.76,ND,ND
2017/08/17,09:50,0.76,ND,ND
2017/08/17,10:00,0.76,ND,ND
2017/08/17,10:10,0.74,ND,ND
2017/08/17,10:20,0.74,ND,ND
2017/08/17,10:30,0.69,0.027,ND
2017/08/17,10:40,0.68,0.027,ND
2017/08/17,10:50,0.72,ND,ND
2017/08/17,11:00,0.69,ND,ND
2017/08/17,11:10,0.65,ND,ND
2017/08/17,11:20,0.65,ND,ND
2017/08/17,11:30,0.65,ND,ND
2017/08/17,11:40,0.64,ND,ND
2017/08/17,11:50,0.66,ND,ND
2017/08/17,12:00,0.67,ND,ND
2017/08/17,12:10,0.67,ND,ND
2017/08/17,12:20,0.67,ND,ND
2017/08/17,12:30,0.67,ND,ND
2017/08/17,12:40,0.66,ND,ND
2017/08/17,12:50,0.68,ND,ND
2017/08/17,13:00,0.70,ND,ND
2017/08/17,13:10,0.73,ND,ND
2017/08/17,13:20,0.69,0.027,ND
2017/08/17,13:30,0.70,0.032,ND
2017/08/17,13:40,0.74,0.058,ND
2017/08/17,13:50,0.72,ND,ND
2017/08/17,14:00,0.73,0.036,ND
2017/08/17,14:10,0.71,0.035,ND
2017/08/17,14:20,0.66,ND,ND
2017/08/17,14:30,0.70,ND,ND
2017/08/17,14:40,0.62,ND,ND
2017/08/17,14:50,0.68,ND,ND
2017/08/17,15:00,0.65,ND,ND
2017/08/17,15:10,0.61,ND,ND
2017/08/17,15:20,0.57,0.029,ND
2017/08/17,15:30,0.56,0.029,ND
2017/08/17,15:40,0.54,0.030,ND
2017/08/17,15:50,0.50,ND,ND
2017/08/17,16:00,0.51,ND,ND
2017/08/17,16:10,0.51,ND,ND
2017/08/17,16:20,0.52,ND,ND
2017/08/17,16:30,0.54,ND,ND
2017/08/17,16:40,0.55,ND,ND
2017/08/17,16:50,0.55,ND,ND
2017/08/17,17:00,0.55,ND,ND
2017/08/17,17:10,0.56,ND,ND
2017/08/17,17:20,0.56,ND,ND
2017/08/17,17:30,0.62,ND,ND
2017/08/17,17:40,0.61,ND,ND
2017/08/17,17:50,0.62,ND,ND
2017/08/17,18:00,0.61,ND,ND
2017/08/17,18:10,0.62,ND,ND
2017/08/17,18:20,0.60,ND,ND
2017/08/17,18:30,0.62,ND,ND
2017/08/17,18:40,0.65,ND,ND
2017/08/17,18:50,0.66,ND,ND
2017/08/17,19:00,0.65,0.027,ND
2017/08/17,19:10,0.64,0.034,ND
2017/08/17,19:20,0.64,0.031,ND
2017/08/17,19:30,0.64,0.030,ND
2017/08/17,19:40,0.62,0.042,ND
2017/08/17,19:50,0.60,ND,ND
2017/08/17,20:00,0.57,ND,ND
2017/08/17,20:10,0.58,ND,ND
2017/08/17,20:20,0.59,ND,ND
2017/08/17,20:30,0.59,ND,ND
2017/08/17,20:40,0.59,ND,ND
2017/08/17,20:50,0.60,ND,ND
2017/08/17,21:00,0.61,ND,ND
2017/08/17,21:10,0.59,ND,ND
2017/08/17,21:20,0.63,0.034,ND
2017/08/17,21:30,0.67,ND,ND
2017/08/17,21:40,0.60,0.034,ND
2017/08/17,21:50,0.64,ND,ND
2017/08/17,22:00,0.61,0.029,ND
2017/08/17,22:10,0.59,0.036,ND
2017/08/17,22:20,0.55,ND,ND
2017/08/17,22:30,0.56,ND,ND
2017/08/17,22:40,0.56,ND,ND
2017/08/17,22:50,0.56,ND,ND
2017/08/17,23:00,0.60,ND,ND
2017/08/17,23:10,0.62,ND,ND
2017/08/17,23:20,0.60,ND,ND
2017/08/17,23:30,0.62,ND,ND
2017/08/17,23:40,0.61,ND,ND
2017/08/17,23:50,0.62,ND,ND
